Location: Mason Neck State Park
(38.6428°N, 77.1981°W)
Time: 13:52:02
(UTC-04:00)

ISS - Visible Passes

Search period start: 28 April 2017 00:00
Search period end: 08 May 2017 00:00
Orbit: 401 x 409 km, 51.6° (Epoch: 29 April)

Date Brightness Start Highest point End Pass type
(mag) Time Alt. Az. Time Alt. Az. Time Alt. Az.
04 May -1.8 05:02:03 10° S 05:04:38 22° SE 05:07:14 10° E visible
05 May -1.1 04:12:05 11° SE 04:12:44 11° SE 04:13:43 10° ESE visible
06 May -3.5 04:54:47 22° SSW 04:56:41 58° SE 04:59:54 10° ENE visible
07 May -2.4 04:04:43 28° SE 04:04:43 28° SE 04:07:29 10° ENE visible
